Weather in Nanning

China     22°49′40″N   108°18′10″E
temp.,
°C
wind,
m/s
gust,
m/s
humid.,
%
clouds,
%
prec.,
mm/h
press.,
hPa
HPBL,
m
8 may, sat
sat823:00+25ese22850 0.0 101188
02:00+24ese12890 0.0 100965
05:00+23e12920 0.0 100952
08:00+25se11843 0.0 1011267
11:00+30sw24562 0.0 10111237
14:00+33sw244515 0.0 10081818
17:00+34s134497 0.0 10051651
20:00+27se587320 0.0 1006350
9 may, sun
sun923:00+25sse48845 0.0 1008298
02:00+24se248928 0.5 1007193
05:00+24se259399 0.8 1007223
08:00+25sse3486100 1.3 1008303
11:00+30sse336297 0.0 10081098
14:00+34s354775 0.0 10051937
17:00+33se655050 0.0 10031004
20:00+27se7107016 0.0 1004391
10 may, mon
mon1023:00+26sse59820 0.4 1005376
02:00+25se510852 0.5 1004452
05:00+25sse48885 0.0 1004383
08:00+26s33827 0.0 1006360
11:00+32s466041 0.0 10061357
14:00+36s574277 0.0 10022488
17:00+34sse89520 0.0 1001991
20:00+28sse611747 0.1 1002361
11 may, tue
tue1123:00+26sse611840 0.1 1004361
02:00+26sse6118739 0.1 1003435
05:00+26se488610 0.0 1004372
08:00+28sse46749 0.0 1005454
11:00+33ssw465823 0.0 10051345
14:00+37s474038 0.0 10012548
17:00+34sse795263 0.0 1000833
20:00+29sse711720 0.0 1002301
12 may, wed
wed1223:00+27sse59840 0.0 1003275
02:00+26se36850 0.0 1002249
05:00+26se36871 0.0 1003222
08:00+28s34795 0.0 1005370
11:00+33ssw355742 0.0 10051412
14:00+36s3543100 0.1 10012218
17:00+32se6105879 0.1 1000512
20:00+29sse611730 0.1 1002339